Location: Proctor
(47.8934°N, 114.3048°W)
Time: 13:16:21
(UTC+00:00)

POLYITAN 1 - Pass Details

Date: 06 July 2022
Orbit: 586 x 605 km, 98.0° (Epoch: 18 August)

Event Time Altitude Azimuth Distance (km) Brightness Sun altitude
Rises 10:08:34 0° 7° (N) 2,867 ? -12.2°
Reaches altitude 10° 10:10:50 10° 360° (N) 1,961 ? -11.9°
Maximum altitude 10:14:49 40° 291° (WNW) 900 ? -11.6°
Enters shadow 10:17:53 16° 227° (SW) 1,611 ? -11.3°
